Weather History for KHFJ - December, 2012

Change the Weather History Date:

Thursday, December 13, 2012

  Actual Average (KJLN) Record (KJLN)
Temperature  
Mean Temperature 44 °F 37 °F  
Max Temperature 57 °F 47 °F 76 °F (1948)
Min Temperature 32 °F 28 °F 4 °F (1961)
Degree Days  
Heating Degree Days 20 28  
Month to date heating degree days 335  
Since 1 July heating degree days 1092  
Cooling Degree Days 0 0  
Month to date cooling degree days 0  
Year to date cooling degree days 1698  
Moisture  
Dew Point 22 °F    
Average Humidity 48    
Maximum Humidity 65    
Minimum Humidity 27    
Precipitation  
Precipitation 0.00 in 0.09 in 2.41 in (1992)
Month to date precipitation 1.30  
Year to date precipitation 45.03  
Sea Level Pressure  
Sea Level Pressure 30.18 in    
Wind  
Wind Speed 10 mph (SSE)    
Max Wind Speed 21 mph    
Max Gust Speed 26 mph    
Visibility 10 miles    
Events      
T = Trace of Precipitation, MM = Missing Value Source: NWS Daily Summary

Daily Weather History Graph

Daily Weather History Graph

Search for Another Location

Airport or City:

Trip Planner

Search our weather history database for the weather conditions in past years. The results will help you decide how hot, cold, wet, or windy it might be!

Date:

Astronomy

Dec. 13, 2012 Rise Set
Actual Time 7:20 AM CST 5:00 PM CST
Civil Twilight 6:51 AM CST 5:29 PM CST
Nautical Twilight 6:19 AM CST 6:01 PM CST
Astronomical Twilight 5:47 AM CST 6:33 PM CST
Moon 7:30 AM CST (12/13) 5:42 PM CST (12/13)
Length of Visible Light 10h 37m
Length of Day
9h 39m
New Moon, 0% of the Moon is Illuminated
Dec 13
New Moon
Dec 19
First Quarter
Dec 28
Full
Jan 4
Last Quarter
Jan 11
New

Hourly Weather History & Observations

Time (CST) Temp. Windchill Dew Point Humidity Pressure Visibility Wind Dir Wind Speed Gust Speed Precip Events Conditions
12:15 AM 33.8 °F 27.7 °F 19.4 °F 56% 30.23 in 10.0 mi SE 6.9 mph - N/A   Clear
12:35 AM 32.0 °F 25.6 °F 19.4 °F 60% 30.23 in 10.0 mi SE 6.9 mph - N/A   Clear
12:55 AM 32.0 °F 26.4 °F 19.4 °F 60% 30.23 in 10.0 mi SE 5.8 mph - N/A   Clear
1:15 AM 32.0 °F 25.6 °F 19.4 °F 60% 30.22 in 10.0 mi SE 6.9 mph - N/A   Clear
1:35 AM 32.0 °F 25.6 °F 19.4 °F 60% 30.23 in 10.0 mi SE 6.9 mph - N/A   Clear
1:55 AM 32.0 °F 25.6 °F 19.4 °F 60% 30.23 in 10.0 mi SSE 6.9 mph - N/A   Clear
2:15 AM 32.0 °F 24.8 °F 19.4 °F 60% 30.23 in 10.0 mi SSE 8.1 mph - N/A   Clear
2:35 AM 32.0 °F 24.2 °F 19.4 °F 60% 30.23 in 10.0 mi SSE 9.2 mph - N/A   Clear
3:15 AM 32.0 °F 24.2 °F 19.4 °F 60% 30.22 in 10.0 mi SE 9.2 mph - N/A   Clear
3:35 AM 32.0 °F 24.2 °F 19.4 °F 60% 30.22 in 10.0 mi SE 9.2 mph - N/A   Clear
3:55 AM 32.0 °F 24.8 °F 19.4 °F 60% 30.21 in 10.0 mi SE 8.1 mph - N/A   Clear
4:15 AM 32.0 °F 24.8 °F 19.4 °F 60% 30.21 in 10.0 mi SSE 8.1 mph - N/A   Clear
4:35 AM 32.0 °F 24.8 °F 19.4 °F 60% 30.20 in 10.0 mi SSE 8.1 mph - N/A   Clear
4:55 AM 32.0 °F 23.6 °F 19.4 °F 60% 30.20 in 10.0 mi SSE 10.4 mph - N/A   Clear
5:15 AM 32.0 °F 24.8 °F 19.4 °F 60% 30.20 in 10.0 mi SSE 8.1 mph - N/A   Clear
5:35 AM 32.0 °F 24.8 °F 19.4 °F 60% 30.20 in 10.0 mi SSE 8.1 mph - N/A   Clear
5:55 AM 32.0 °F 24.8 °F 19.4 °F 60% 30.20 in 10.0 mi SSE 8.1 mph - N/A   Clear
6:15 AM 32.0 °F 24.2 °F 19.4 °F 60% 30.20 in 10.0 mi SE 9.2 mph - N/A   Clear
6:35 AM 32.0 °F 24.2 °F 19.4 °F 60% 30.20 in 10.0 mi SE 9.2 mph - N/A   Clear
6:55 AM 32.0 °F 24.2 °F 19.4 °F 60% 30.20 in 10.0 mi SE 9.2 mph - N/A   Clear
7:15 AM 32.0 °F 24.2 °F 19.4 °F 60% 30.20 in 10.0 mi SE 9.2 mph - N/A   Clear
8:15 AM 33.8 °F 27.0 °F 19.4 °F 56% 30.21 in 10.0 mi SSE 8.1 mph - N/A   Clear
8:35 AM 39.2 °F 32.5 °F 19.4 °F 45% 30.21 in 10.0 mi SSE 10.4 mph - N/A   Clear
8:55 AM 42.8 °F 36.6 °F 19.4 °F 39% 30.21 in 10.0 mi South 11.5 mph - N/A   Clear
9:15 AM 44.6 °F 38.8 °F 21.2 °F 39% 30.21 in 10.0 mi South 11.5 mph - N/A   Clear
9:35 AM 46.4 °F 40.1 °F 21.2 °F 37% 30.22 in 10.0 mi South 15.0 mph 20.7 mph N/A   Clear
9:55 AM 48.2 °F - 21.2 °F 34% 30.22 in 10.0 mi SSW 16.1 mph 19.6 mph N/A   Clear
10:15 AM 48.2 °F - 21.2 °F 34% 30.22 in 10.0 mi South 16.1 mph 20.7 mph N/A   Clear
10:35 AM 50.0 °F - 23.0 °F 35% 30.21 in 10.0 mi SSW 19.6 mph - N/A   Clear
10:55 AM 50.0 °F - 23.0 °F 35% 30.21 in 10.0 mi South 16.1 mph - N/A   Clear
11:15 AM 51.8 °F - 23.0 °F 33% 30.21 in 10.0 mi SSW 18.4 mph 26.5 mph N/A   Clear
11:35 AM 53.6 °F - 24.8 °F 33% 30.20 in 10.0 mi SSW 16.1 mph 21.9 mph N/A   Clear
11:55 AM 53.6 °F - 23.0 °F 30% 30.20 in 10.0 mi SSW 19.6 mph - N/A   Clear
12:15 PM 53.6 °F - 24.8 °F 33% 30.20 in 10.0 mi SSW 18.4 mph 25.3 mph N/A   Clear
12:35 PM 55.4 °F - 24.8 °F 31% 30.19 in 10.0 mi SSW 15.0 mph 19.6 mph N/A   Clear
12:55 PM 55.4 °F - 24.8 °F 31% 30.18 in 10.0 mi SSW 15.0 mph - N/A   Clear
1:15 PM 55.4 °F - 24.8 °F 31% 30.18 in 10.0 mi SSW 19.6 mph 23.0 mph N/A   Clear
1:35 PM 57.2 °F - 24.8 °F 29% 30.17 in 10.0 mi SSW 13.8 mph 18.4 mph N/A   Clear
1:55 PM 55.4 °F - 23.0 °F 29% 30.16 in 10.0 mi SSW 20.7 mph - N/A   Clear
2:15 PM 57.2 °F - 23.0 °F 27% 30.16 in 10.0 mi SSW 17.3 mph 25.3 mph N/A   Clear
2:35 PM 55.4 °F - 23.0 °F 29% 30.15 in 10.0 mi SSW 18.4 mph 23.0 mph N/A   Clear
2:55 PM 55.4 °F - 24.8 °F 31% 30.15 in 10.0 mi South 19.6 mph 24.2 mph N/A   Clear
3:15 PM 55.4 °F - 23.0 °F 29% 30.14 in 10.0 mi South 18.4 mph 23.0 mph N/A   Clear
3:35 PM 55.4 °F - 24.8 °F 31% 30.13 in 10.0 mi South 15.0 mph 18.4 mph N/A   Clear
3:55 PM 55.4 °F - 26.6 °F 33% 30.13 in 10.0 mi South 11.5 mph - N/A   Clear
5:15 PM 48.2 °F - 26.6 °F 43% 30.12 in 10.0 mi SSE 9.2 mph - N/A   Clear
7:15 PM 42.8 °F 38.0 °F 26.6 °F 53% 30.13 in 10.0 mi SSE 8.1 mph - N/A   Clear
7:55 PM 42.8 °F 38.0 °F 24.8 °F 49% 30.13 in 10.0 mi SSE 8.1 mph - N/A   Clear
8:15 PM 41.0 °F 35.2 °F 24.8 °F 53% 30.13 in 10.0 mi SSE 9.2 mph - N/A   Clear
8:35 PM 42.8 °F 38.0 °F 24.8 °F 49% 30.13 in 10.0 mi SSE 8.1 mph - N/A   Clear
8:55 PM 41.0 °F 35.2 °F 24.8 °F 53% 30.13 in 10.0 mi SSE 9.2 mph - N/A   Clear
9:15 PM 41.0 °F 34.7 °F 24.8 °F 53% 30.14 in 10.0 mi SSE 10.4 mph - N/A   Clear
9:35 PM 41.0 °F 35.8 °F 24.8 °F 53% 30.15 in 10.0 mi SSE 8.1 mph - N/A   Clear
9:55 PM 39.2 °F 35.0 °F 24.8 °F 56% 30.15 in 10.0 mi South 5.8 mph - N/A   Clear
10:15 PM 39.2 °F 35.0 °F 24.8 °F 56% 30.16 in 10.0 mi South 5.8 mph - N/A   Clear
10:35 PM 39.2 °F 35.9 °F 23.0 °F 52% 30.16 in 10.0 mi South 4.6 mph - N/A   Clear
10:55 PM 39.2 °F 35.9 °F 23.0 °F 52% 30.15 in 10.0 mi SSE 4.6 mph - N/A   Clear
11:15 PM 37.4 °F 32.1 °F 24.8 °F 60% 30.15 in 10.0 mi SSE 6.9 mph - N/A   Clear
11:35 PM 35.6 °F 29.2 °F 24.8 °F 65% 30.14 in 10.0 mi SE 8.1 mph - N/A   Clear
11:55 PM 37.4 °F 31.4 °F 24.8 °F 60% 30.15 in 10.0 mi SSE 8.1 mph - N/A   Clear